Location: Bazugues
(43.4465°N, 0.3432°E)
Time: 06:49:36
(UTC+00:00)

Cosmos 1850 Rocket - Pass Details

Date: 12 January 2026
Orbit: 749 x 781 km, 74.0° (Epoch: 10 February)

Event Time Altitude Azimuth Distance (km) Brightness Sun altitude
Rises 18:51:38 0° 338° (NNW) 3,257 7.4 -22.5°
Reaches altitude 10° 18:54:01 10° 337° (NNW) 2,330 6.7 -22.9°
Maximum altitude 18:59:19 78° 252° (WSW) 799 4.1 -23.9°
Drops below altitude 10° 19:04:36 10° 167° (SSE) 2,327 6.4 -24.9°
Sets 19:06:59 0° 166° (SSE) 3,252 7.2 -25.3°
